Location: Bremen
(53.0793°N, 8.8017°E)
Time: 13:06:33
(UTC+01:00)

Vanguard 1 Rocket - Pass Details

Date: 08 December 2021
Orbit: 651 x 4224 km, 34.3° (Epoch: 21 January)

Event Time Altitude Azimuth Distance (km) Brightness Sun altitude
Rises 09:40:50 0° 268° (W) 7,067 11.6 7.0°
Reaches altitude 10° 09:52:39 10° 238° (WSW) 6,922 11.9 8.0°
Maximum altitude 09:56:36 11° 228° (SW) 7,058 12.1 8.3°
Drops below altitude 10° 10:00:46 10° 218° (SW) 7,275 12.3 8.6°
Sets 10:15:34 0° 189° (S) 8,417 13.3 9.7°
